Pagina principale
METAR-TAF:

METAR-TAF

Aeroporti :

Newport, Vermont, Stati Uniti

latitudine: 44-53-20N, longitudine: 072-13-45W, altezza: 283 m

Osservazione

Il bollettino è stato emesso 27 minuti fa, alle 00:35 UTC
Vento 3 kt da est/sud-est
Temperature 3°C
Umidità 81%
Pressione 1013 hPa
Visibilità: 16.1 km
Nubi sparse ad un'altezza di 5000 ft

METAR: KEFK 170035Z AUTO 12003KT 10SM SCT050 03/00 A2992 RMK AO2 T00321003

Ora: 21:02 (01:02 UTC)


TAF: mancante

Osservazioni e previsioni meteorologiche di più di 4000 aeroporti (messaggi METAR e TAF).

Le stazioni disponibili sono rappresentate dai dischi gialli e rossi sulla carta.

Puntare il mouse per vedere il nome della stazione.

Clicca sopra per visualizzare le osservazioni e previsioni meteorologiche.

Per cambiare la mappa : fare clic sui pulsanti verdi con una croce nera per ingrandire, il pulsante verde con un trattino per diminuire, o sulla freccia verde per le mappe adiacenti.


METAR-TAF: